Flight Track Log - Related Links

Times and Time Zones

All times are in EDT time to prevent confusion due to time zone crossing. See the EJA930 flight status page for this flight to view local times or setup timezone preferences in your user account.

Time Position Orientation Groundspeed Altitude Reporting Facility
EDT Latitude Longitude Course Direction KTS MPH feet Rate Location/Type
Sat 06:11:57 PM 36.0672 -115.1764 215° Southwest 170 196 3,100  Level Los Angeles Center
Sat 06:13:17 PM 36.0017 -115.2325 215° Southwest 237 273 6,500 1,500 Climbing Los Angeles Center
Sat 06:14:29 PM 35.9356 -115.3072 222° Southwest 290 334 6,900 1,306 Climbing Los Angeles Center
Sat 06:15:21 PM 35.8747 -115.3128 184° South 277 319 9,200 2,708 Climbing Los Angeles Center
Sat 06:16:22 PM 35.7967 -115.3100 178° South 280 322 12,000 2,267 Climbing Los Angeles Center
Sat 06:17:36 PM 35.6989 -115.3031 177° South 286 329 14,300 1,721 Climbing Los Angeles Center
Sat 06:18:38 PM 35.6050 -115.3861 216° Southwest 325 374 15,900 1,355 Climbing Los Angeles Center
Sat 06:19:40 PM 35.5375 -115.4781 228° Southwest 344 396 17,100 1,306 Climbing Los Angeles Center
Sat 06:20:42 PM 35.4669 -115.5769 229° Southwest 364 419 18,600 1,355 Climbing Los Angeles Center
Sat 06:21:44 PM 35.3947 -115.6731 227° Southwest 385 443 19,900 1,268 Climbing Los Angeles Center
Sat 06:22:45 PM 35.3203 -115.7742 228° Southwest 396 456 21,200 1,268 Climbing Los Angeles Center
Sat 06:23:47 PM 35.2444 -115.8767 228° Southwest 404 465 22,500 1,210 Climbing Los Angeles Center
Sat 06:24:49 PM 35.1667 -115.9808 228° Southwest 413 475 23,700 732 Climbing Los Angeles Center
Sat 06:25:50 PM 35.0667 -116.1119 227° Southwest 433 498 24,000 98 Climbing Los Angeles Center
Sat 06:26:52 PM 34.9778 -116.2286 227° Southwest 458 527 23,900 -581 Descending Los Angeles Center
Sat 06:27:54 PM 34.8894 -116.3433 227° Southwest 463 533 22,800 -919 Descending Los Angeles Center
Sat 06:28:56 PM 34.8225 -116.4781 239° Southwest 467 537 22,000 -387 Descending Los Angeles Center
Sat 06:29:58 PM 34.7967 -116.6264 258° West 446 513 22,000  Level Los Angeles Center
Sat 06:30:59 PM 34.7819 -116.7756 263° West 445 512 22,000  Level Los Angeles Center
Sat 06:32:01 PM 34.7644 -116.9247 262° West 445 512 22,000  Level Los Angeles Center
Sat 06:33:03 PM 34.7472 -117.0722 262° West 441 507 22,000  Level Los Angeles Center
Sat 06:34:05 PM 34.7281 -117.2511 263° West 442 509 22,000 -293 Level Los Angeles Center
Sat 06:35:06 PM 34.7097 -117.4000 262° West 443 510 21,400 -1,463 Descending Los Angeles Center
Sat 06:36:08 PM 34.6925 -117.5519 262° West 450 518 19,000 -2,323 Descending Los Angeles Center
Sat 06:37:10 PM 34.6753 -117.6986 262° West 439 505 16,600 -2,439 Descending Los Angeles Center
Sat 06:38:11 PM 34.6525 -117.8408 259° West 436 502 14,000 -2,439 Descending Los Angeles Center
Sat 06:39:13 PM 34.6114 -117.9706 249° West 411 473 11,600 -1,887 Descending Los Angeles Center
Sat 06:40:15 PM 34.5722 -118.0856 248° West 368 423 10,100 -1,561 Descending Los Angeles Center
Sat 06:41:16 PM 34.5378 -118.1844 247° West 287 330 8,400 -933 Descending Los Angeles Center
Sat 06:42:30 PM 34.5050 -118.2697 245° Southwest 282 325 8,000 -176 Descending Los Angeles Center
Sat 06:43:32 PM 34.4439 -118.3592 230° Southwest 289 333 8,000 -242 Level Los Angeles Center
Sat 06:44:34 PM 34.3639 -118.3578 179° South 294 338 7,500 -629 Descending Los Angeles Center
Sat 06:45:36 PM 34.2767 -118.3408 171° South 268 308 6,700 -683 Descending Los Angeles Center
Sat 06:46:37 PM 34.2125 -118.3164 163° South 245 282 6,100 -829 Descending Los Angeles Center
Sat 06:47:39 PM 34.1494 -118.2992 167° South 234 269 5,000 -1,210 Descending Los Angeles Center
Sat 06:48:41 PM 34.0983 -118.3444 216° Southwest 233 268 3,600 -1,500 Descending Los Angeles Center
Sat 06:49:43 PM 34.0633 -118.3894 227° Southwest 208 239 1,900 -1,268 Descending Los Angeles Center
Sat 06:50:44 PM 34.0397 -118.4239 230° Southwest 164 189 1,000 -780 Descending Los Angeles Center
Sat 06:51:46 PM 34.0142 -118.4542 224° Southwest 141 162 300 -677 Descending Los Angeles Center
Sat 06:53:00 PM 34.0158 -118.4513 North  Level Estimated
Sat 07:00:00 PM 34.0158 -118.4513 North  Level Estimated

Login

Don't have an account? Register now (free) for customized features, flight alerts, and more!